Location: Clarion
(42.7316°N, 93.7330°W)
Time: 09:11:38
(UTC+00:00)

NOSS 3-4 (A) - Pass Details

Date: 22 April 2026
Orbit: 769 x 1442 km, 63.4° (Epoch: 10 January)

Event Time Altitude Azimuth Distance (km) Brightness Sun altitude
Rises 01:25:40 0° 219° (SW) 3,226 6.5 -4.6°
Reaches altitude 10° 01:28:00 10° 220° (SW) 2,308 5.8 -5.0°
Maximum altitude 01:33:13 77° 307° (NW) 824 3.4 -5.8°
Drops below altitude 10° 01:38:55 10° 34° (NE) 2,516 5.6 -6.8°
Sets 01:41:34 0° 36° (NE) 3,542 6.3 -7.2°
